| time (UTC) | temp C | wind direction | speed KPH | gust KPH | rain 1hr cm | rain 24hr cm | rain mn cm | humidity % | barometer mb |
| 20260508043004 | 11 | 11 | 0.0 | 0.0 | 0.00 | 0.03 | 0.03 | 94 | 1013.6 |
| 20260508041604 | 11 | 19 | 0.0 | 0.0 | 0.00 | 0.03 | 0.03 | 94 | 1013.3 |
| 20260508040007 | 11 | 300 | 0.0 | 0.0 | 0.00 | 0.03 | 0.03 | 93 | 1013.0 |
| 20260508034502 | 11 | 355 | 0.0 | 0.0 | 0.00 | 0.03 | 0.03 | 93 | 1012.8 |
| 20260508033004 | 11 | 284 | 0.0 | 0.0 | 0.00 | 0.03 | 0.03 | 92 | 1012.6 |
| 20260508031504 | 11 | 298 | 0.0 | 0.0 | 0.00 | 0.03 | 0.03 | 91 | 1012.5 |
| 20260508024602 | 12 | 242 | 0.0 | 0.0 | 0.00 | 0.03 | 0.03 | 89 | 1012.4 |
| 20260508023100 | 13 | 20 | 0.0 | 0.0 | 0.00 | 0.03 | 0.03 | 88 | 1012.4 |
| 20260508021559 | 14 | 264 | 0.0 | 0.0 | 0.00 | 0.03 | 0.03 | 84 | 1012.4 |
| 20260508020100 | 15 | 271 | 0.0 | 0.0 | 0.00 | 0.03 | 0.03 | 82 | 1012.1 |
| 20260508014557 | 16 | 355 | 0.0 | 0.0 | 0.00 | 0.03 | 0.03 | 82 | 1012.1 |
| 20260508013056 | 17 | 5 | 0.0 | 0.0 | 0.00 | 0.03 | 0.03 | 77 | 1012.2 |
| 20260508011554 | 17 | 321 | 0.0 | 0.0 | 0.00 | 0.03 | 0.03 | 77 | 1012.3 |
| 20260508010052 | 17 | 225 | 0.0 | 0.0 | 0.00 | 0.03 | 0.03 | 77 | 1012.5 |
| 20260508004554 | 17 | 184 | 0.0 | 0.0 | 0.00 | 0.03 | 0.03 | 79 | 1012.5 |
| 20260508003052 | 17 | 344 | 0.0 | 0.0 | 0.00 | 0.03 | 0.03 | 81 | 1012.4 |
| 20260508001550 | 16 | 346 | 0.0 | 0.0 | 0.00 | 0.03 | 0.03 | 78 | 1012.5 |
| 20260508000054 | 17 | 347 | 0.0 | 0.0 | 0.00 | 0.03 | 0.03 | 79 | 1012.6 |
| 20260507234553 | 17 | 348 | 0.0 | 0.0 | 0.00 | 0.03 | 0.03 | 78 | 1012.8 |
| 20260507233105 | 17 | 360 | 0.0 | 0.0 | 0.00 | 0.03 | 0.03 | 78 | 1012.8 |
| 20260507231544 | 17 | 186 | 0.0 | 0.0 | 0.00 | 0.03 | 0.03 | 79 | 1013.0 |
| 20260507230045 | 18 | 207 | 0.0 | 0.0 | 0.00 | 0.03 | 0.03 | 77 | 1013.1 |
| 20260507224539 | 18 | 246 | 0.0 | 0.0 | 0.00 | 0.03 | 0.03 | 76 | 1013.1 |
| 20260507223053 | 18 | 236 | 0.0 | 0.0 | 0.00 | 0.03 | 0.03 | 77 | 1013.1 |
| 20260507221541 | 18 | 227 | 0.0 | 0.0 | 0.00 | 0.03 | 0.03 | 76 | 1013.1 |
| 20260507220039 | 20 | 237 | 0.0 | 0.0 | 0.00 | 0.03 | 0.03 | 73 | 1013.2 |
| 20260507214534 | 21 | 234 | 0.0 | 1.6 | 0.00 | 0.03 | 0.03 | 72 | 1013.2 |
| 20260507213033 | 21 | 192 | 0.0 | 0.0 | 0.00 | 0.03 | 0.03 | 74 | 1013.2 |
| 20260507211536 | 20 | 24 | 0.0 | 0.0 | 0.00 | 0.03 | 0.03 | 75 | 1013.1 |
| 20260507210030 | 20 | 283 | 0.0 | 0.0 | 0.00 | 0.03 | 0.03 | 78 | 1013.2 |
| 20260507204522 | 19 | 236 | 0.0 | 0.0 | 0.00 | 0.03 | 0.03 | 80 | 1013.1 |
| 20260507203019 | 18 | 196 | 0.0 | 3.2 | 0.00 | 0.03 | 0.03 | 81 | 1013.2 |
| 20260507201519 | 18 | 240 | 0.0 | 6.4 | 0.00 | 0.03 | 0.03 | 81 | 1013.3 |
| 20260507200016 | 18 | 239 | 0.0 | 0.0 | 0.00 | 0.03 | 0.03 | 85 | 1013.5 |
| 20260507194528 | 17 | 141 | 0.0 | 0.0 | 0.00 | 0.03 | 0.03 | 86 | 1013.5 |
| 20260507193014 | 16 | 182 | 0.0 | 0.0 | 0.00 | 0.03 | 0.03 | 89 | 1013.6 |
| 20260507191506 | 15 | 204 | 0.0 | 0.0 | 0.00 | 0.03 | 0.03 | 92 | 1013.7 |
| 20260507190010 | 15 | 227 | 0.0 | 0.0 | 0.00 | 0.03 | 0.03 | 92 | 1013.8 |
| 20260507184600 | 13 | 194 | 0.0 | 0.0 | 0.00 | 0.03 | 0.03 | 94 | 1013.9 |
| 20260507183115 | 13 | 311 | 0.0 | 0.0 | 0.00 | 0.03 | 0.03 | 95 | 1014.1 |
| 20260507181600 | 13 | 248 | 0.0 | 0.0 | 0.00 | 0.03 | 0.03 | 96 | 1014.1 |
| 20260507180055 | 12 | 207 | 0.0 | 0.0 | 0.00 | 0.03 | 0.03 | 96 | 1014.1 |
| 20260507174600 | 12 | 270 | 0.0 | 0.0 | 0.00 | 0.03 | 0.03 | 96 | 1014.1 |
| 20260507173050 | 11 | 262 | 0.0 | 0.0 | 0.00 | 0.03 | 0.03 | 97 | 1014.2 |
| 20260507171547 | 11 | 279 | 0.0 | 0.0 | 0.00 | 0.03 | 0.03 | 97 | 1014.2 |
| 20260507170046 | 11 | 193 | 0.0 | 0.0 | 0.00 | 0.03 | 0.03 | 97 | 1014.2 |
| 20260507164603 | 11 | 238 | 0.0 | 0.0 | 0.00 | 0.03 | 0.03 | 96 | 1014.1 |
| 20260507163042 | 11 | 238 | 0.0 | 0.0 | 0.00 | 0.03 | 0.03 | 97 | 1014.1 |
| 20260507161552 | 11 | 197 | 0.0 | 0.0 | 0.00 | 0.03 | 0.03 | 97 | 1014.1 |
| 20260507160040 | 11 | 243 | 0.0 | 0.0 | 0.00 | 0.03 | 0.03 | 97 | 1014.0 |
| 20260507154539 | 10 | 248 | 0.0 | 0.0 | 0.00 | 0.05 | 0.03 | 97 | 1013.9 |
| 20260507153041 | 10 | 226 | 0.0 | 0.0 | 0.00 | 0.05 | 0.03 | 97 | 1013.8 |
| 20260507151537 | 10 | 258 | 0.0 | 0.0 | 0.00 | 0.05 | 0.03 | 96 | 1013.6 |
| 20260507150036 | 10 | 211 | 0.0 | 1.6 | 0.00 | 0.05 | 0.03 | 96 | 1013.5 |
| 20260507144537 | 10 | 196 | 0.0 | 0.0 | 0.00 | 0.05 | 0.03 | 97 | 1013.5 |
| 20260507143040 | 10 | 194 | 0.0 | 0.0 | 0.00 | 0.05 | 0.03 | 97 | 1013.5 |
| 20260507141535 | 10 | 100 | 0.0 | 0.0 | 0.00 | 0.05 | 0.03 | 96 | 1013.4 |
| 20260507140035 | 10 | 194 | 0.0 | 0.0 | 0.00 | 0.05 | 0.03 | 96 | 1013.3 |
| 20260507134533 | 10 | 74 | 0.0 | 0.0 | 0.00 | 0.05 | 0.03 | 96 | 1013.4 |
| 20260507133032 | 9 | 127 | 0.0 | 0.0 | 0.00 | 0.05 | 0.03 | 96 | 1013.2 |
| 20260507131531 | 9 | 127 | 0.0 | 0.0 | 0.03 | 0.05 | 0.03 | 96 | 1013.1 |
| 20260507130037 | 10 | 126 | 0.0 | 0.0 | 0.03 | 0.05 | 0.03 | 96 | 1013.1 |
| 20260507124537 | 10 | 126 | 0.0 | 0.0 | 0.03 | 0.05 | 0.03 | 96 | 1013.1 |
| 20260507123028 | 10 | 127 | 0.0 | 0.0 | 0.03 | 0.05 | 0.03 | 96 | 1013.2 |
| 20260507121527 | 10 | 126 | 0.0 | 0.0 | 0.00 | 0.03 | 0.00 | 96 | 1013.1 |
| 20260507120025 | 10 | 126 | 0.0 | 0.0 | 0.00 | 0.03 | 0.00 | 96 | 1013.1 |
| 20260507114534 | 10 | 126 | 0.0 | 0.0 | 0.00 | 0.03 | 0.00 | 96 | 1013.2 |
| 20260507113038 | 10 | 126 | 0.0 | 0.0 | 0.00 | 0.03 | 0.00 | 96 | 1013.3 |
| 20260507111525 | 10 | 319 | 0.0 | 0.0 | 0.00 | 0.03 | 0.00 | 96 | 1013.3 |
| 20260507110020 | 10 | 319 | 0.0 | 0.0 | 0.00 | 0.03 | 0.00 | 96 | 1013.4 |
| 20260507104519 | 10 | 355 | 0.0 | 0.0 | 0.00 | 0.03 | 0.00 | 96 | 1013.4 |
| 20260507103020 | 10 | 9 | 0.0 | 0.0 | 0.00 | 0.03 | 0.00 | 96 | 1013.6 |
| 20260507101518 | 10 | 5 | 0.0 | 0.0 | 0.00 | 0.03 | 0.00 | 96 | 1013.5 |
| 20260507100014 | 10 | 258 | 0.0 | 0.0 | 0.00 | 0.03 | 0.00 | 96 | 1013.6 |
| 20260507094511 | 10 | 355 | 0.0 | 0.0 | 0.00 | 0.03 | 0.00 | 96 | 1013.7 |
| 20260507093010 | 10 | 343 | 0.0 | 0.0 | 0.00 | 0.03 | 0.00 | 96 | 1013.7 |
| 20260507091509 | 10 | 328 | 0.0 | 0.0 | 0.00 | 0.03 | 0.00 | 96 | 1013.8 |
| 20260507090008 | 10 | 346 | 0.0 | 0.0 | 0.00 | 0.03 | 0.00 | 96 | 1013.9 |
| 20260507084508 | 10 | 292 | 0.0 | 0.0 | 0.00 | 0.03 | 0.00 | 95 | 1013.8 |
| 20260507083006 | 10 | 292 | 0.0 | 0.0 | 0.00 | 0.03 | 0.00 | 95 | 1013.7 |
| 20260507081507 | 10 | 9 | 0.0 | 0.0 | 0.00 | 0.03 | 0.00 | 95 | 1013.7 |
| 20260507080004 | 10 | 333 | 0.0 | 0.0 | 0.00 | 0.03 | 0.00 | 95 | 1013.8 |
| 20260507074503 | 10 | 5 | 0.0 | 0.0 | 0.00 | 0.03 | 0.00 | 95 | 1013.8 |
| 20260507073002 | 10 | 32 | 0.0 | 0.0 | 0.00 | 0.03 | 0.00 | 95 | 1013.8 |
| 20260507071500 | 10 | 32 | 0.0 | 0.0 | 0.00 | 0.03 | 0.00 | 95 | 1013.9 |
| 20260507070106 | 10 | 32 | 0.0 | 0.0 | 0.00 | 0.03 | 0.00 | 95 | 1013.8 |
| 20260507064558 | 10 | 32 | 0.0 | 0.0 | 0.00 | 0.03 | 0.03 | 95 | 1013.8 |
| 20260507063058 | 10 | 9 | 0.0 | 0.0 | 0.00 | 0.03 | 0.03 | 95 | 1013.9 |
| 20260507061558 | 10 | 10 | 0.0 | 0.0 | 0.00 | 0.03 | 0.03 | 94 | 1014.0 |
| 20260507054558 | 10 | 317 | 0.0 | 0.0 | 0.00 | 0.03 | 0.03 | 94 | 1014.3 |
| 20260507053056 | 11 | 5 | 0.0 | 0.0 | 0.00 | 0.03 | 0.03 | 94 | 1014.3 |
| 20260507051556 | 11 | 54 | 0.0 | 0.0 | 0.00 | 0.03 | 0.03 | 94 | 1014.3 |
| 20260507050055 | 11 | 83 | 0.0 | 0.0 | 0.00 | 0.03 | 0.03 | 94 | 1014.3 |
| 20260507044606 | 11 | 349 | 0.0 | 0.0 | 0.00 | 0.03 | 0.03 | 93 | 1014.5 |